DW2917 Weather Reports


time (UTC)temp
F
wind
direction
speed
knots
gust
knots
rain 1hr
in
rain 24hr
in
rain mn
in
humidity
%
barometer
mb
20260507110005 50 320 0.9 0.0 0.00 0.00 0.08 89 1011.4
20260507104504 50 322 1.7 0.0 0.00 0.00 0.08 90 1011.5
20260507103002 51 325 0.9 0.0 0.00 0.00 0.08 91 1011.3
20260507101521 51 321 0.9 0.0 0.00 0.00 0.08 91 1011.3
20260507100028 50 329 0.0 0.0 0.00 0.00 0.08 92 1010.9
20260507094513 50 328 0.0 0.0 0.00 0.00 0.08 92 1010.8
20260507093014 51 328 0.0 0.0 0.00 0.00 0.08 92 1011.1
20260507091511 51 329 0.0 0.0 0.00 0.00 0.08 91 1011.2
20260507090011 51 329 0.0 0.0 0.00 0.00 0.08 91 1010.8
20260507084523 51 329 0.9 0.0 0.00 0.00 0.08 91 1010.8
20260507083019 51 336 0.9 0.0 0.00 0.00 0.08 92 1010.2
20260507081510 51 333 0.9 0.0 0.00 0.00 0.08 92 1010.3
20260507080009 51 334 0.9 0.0 0.00 0.00 0.08 92 1010.2
20260507074507 51 350 1.7 0.0 0.00 0.00 0.08 92 1010.1
20260507073006 51 340 1.7 0.0 0.00 0.00 0.08 92 1010.3
20260507071509 51 332 0.9 0.0 0.00 0.00 0.08 92 1010.7
20260507070013 51 329 1.7 0.0 0.00 0.00 0.08 91 1010.3
20260507064503 52 332 2.6 0.0 0.00 0.00 0.07 90 1010.4
20260507063101 53 314 2.6 0.0 0.00 0.00 0.06 90 1010.4
20260507061600 53 305 2.6 0.0 0.00 0.00 0.04 90 1010.7
20260507060059 53 336 0.9 0.0 0.00 0.00 0.04 91 1010.5
20260507054556 53 337 1.7 0.0 0.00 0.00 0.04 91 1010.6
20260507053058 54 324 1.7 0.0 0.00 0.00 0.04 91 1010.3
20260507051601 54 2 2.6 0.0 0.00 0.00 0.04 91 1010.3
20260507050106 54 329 1.7 0.0 0.00 0.00 0.04 91 1010.5
20260507044555 54 320 2.6 0.0 0.00 0.00 0.04 91 1011.2
20260507043049 55 333 0.9 0.0 0.00 0.00 0.04 91 1010.6
20260507041547 55 355 1.7 0.0 0.00 0.00 0.01 90 1009.9
20260507040048 56 317 3.5 0.0 0.00 0.00 0.19 89 1010.3
20260507034543 56 319 2.6 0.0 0.00 0.00 0.19 89 1010.2
20260507033045 57 331 3.5 0.0 0.00 0.00 0.19 88 1009.8
20260507031536 58 2 2.6 0.0 0.00 0.00 0.18 89 1009.8
20260507030038 58 324 3.5 0.0 0.00 0.00 0.17 88 1009.5
20260507024542 59 334 3.5 0.0 0.00 0.00 0.17 87 1009.2
20260507023033 59 305 1.7 0.0 0.00 0.00 0.17 88 1009.7
20260507021546 59 329 0.9 0.0 0.00 0.00 0.17 87 1009.4
20260507020033 59 327 3.5 0.0 0.00 0.00 0.17 86 1009.7
20260507014530 60 318 3.5 0.0 0.00 0.00 0.17 87 1009.2
20260507013035 60 314 3.5 0.0 0.00 0.00 0.17 88 1009.6
20260507011535 61 318 4.3 0.0 0.00 0.00 0.17 88 1009.2
20260507010039 63 350 3.5 0.0 0.00 0.00 0.17 90 1009.4
20260507004528 64 320 2.6 0.0 0.00 0.00 0.15 89 1009.1
20260507003027 65 331 4.3 0.0 0.00 0.00 0.15 87 1008.8
20260507001528 65 279 0.9 0.0 0.00 0.00 0.14 88 1008.5
20260507000032 65 240 0.9 0.0 0.00 0.00 0.14 86 1008.0
20260506234527 66 215 0.9 0.0 0.00 0.00 0.14 84 1007.9
20260506233025 66 220 0.0 0.0 0.00 0.00 0.14 82 1007.6
20260506231527 67 222 0.9 0.0 0.00 0.00 0.14 82 1007.4
20260506230026 67 226 0.9 0.0 0.00 0.00 0.14 81 1007.5
20260506224523 67 229 1.7 0.0 0.00 0.00 0.14 80 1007.5
20260506223128 68 222 2.6 0.0 0.00 0.00 0.14 79 1007.3
20260506221520 68 248 1.7 0.0 0.00 0.00 0.14 80 1007.3
20260506220029 67 231 1.7 0.0 0.00 0.00 0.14 80 1007.5
20260506214520 68 216 1.7 0.0 0.00 0.00 0.14 79 1007.3
20260506213027 67 212 2.6 0.0 0.00 0.00 0.14 81 1007.3
20260506211524 67 211 3.5 0.0 0.00 0.00 0.14 79 1007.1
20260506210023 68 279 3.5 0.0 0.00 0.00 0.14 77 1006.8
20260506204519 69 195 2.6 0.0 0.00 0.00 0.14 75 1006.7
20260506200011 67 246 2.6 0.0 0.00 0.00 0.14 80 1006.8
20260506194512 67 187 3.5 0.0 0.00 0.00 0.14 80 1006.8
20260506193014 67 227 3.5 0.0 0.00 0.00 0.14 78 1007.1
20260506191511 67 291 4.3 0.0 0.00 0.00 0.14 79 1007.2
20260506190009 67 225 3.5 0.0 0.00 0.00 0.14 81 1007.4
20260506184506 66 236 2.6 0.0 0.00 0.00 0.14 83 1007.4
20260506183006 65 301 3.5 0.0 0.00 0.00 0.14 83 1007.4
20260506181506 64 200 4.3 0.0 0.00 0.00 0.14 83 1007.6
20260506180008 64 256 3.5 0.0 0.00 0.00 0.14 85 1007.8
20260506174503 64 214 3.5 0.0 0.00 0.00 0.14 85 1007.7
20260506173003 63 212 3.5 0.0 0.00 0.00 0.14 86 1007.8
20260506171505 62 194 4.3 0.0 0.00 0.00 0.14 88 1007.9
20260506170001 62 201 4.3 0.0 0.00 0.00 0.14 88 1007.9
20260506164601 62 236 6.1 0.0 0.00 0.00 0.14 89 1007.9
20260506163104 61 218 5.2 0.0 0.00 0.00 0.14 89 1007.9
20260506161606 61 220 6.1 0.0 0.00 0.00 0.14 90 1007.9
20260506160101 60 205 5.2 0.0 0.00 0.00 0.13 90 1008.2
20260506154557 60 219 7.0 0.0 0.00 0.00 0.13 91 1007.9
20260506153055 60 188 6.1 0.0 0.00 0.00 0.13 92 1008.0
20260506151605 60 192 7.8 0.0 0.00 0.00 0.13 92 1008.4
20260506150052 59 219 5.2 0.0 0.00 0.00 0.13 92 1008.6
20260506144550 60 245 6.1 0.0 0.00 0.00 0.11 92 1008.9
20260506143053 59 215 6.1 0.0 0.00 0.00 0.11 91 1008.7
20260506141546 60 182 6.1 0.0 0.00 0.00 0.10 91 1008.5
20260506140053 60 220 4.3 0.0 0.00 0.00 0.09 91 1008.5
20260506134544 60 233 6.1 0.0 0.00 0.00 0.08 91 1008.8
20260506133043 60 208 4.3 0.0 0.00 0.00 0.07 91 1009.3
20260506131540 60 210 3.5 0.0 0.00 0.00 0.06 90 1008.9
20260506130037 60 224 2.6 0.0 0.00 0.00 0.04 89 1008.9
20260506124534 60 208 3.5 0.0 0.00 0.00 0.03 88 1008.7
20260506123031 61 201 4.3 0.0 0.00 0.00 0.01 84 1008.9
20260506121527 62 211 4.3 0.0 0.00 0.00 0.00 80 1008.9
20260506120024 62 213 4.3 0.0 0.00 0.00 0.00 78 1009.1
20260506114530 63 213 3.5 0.0 0.00 0.00 0.00 75 1009.1
20260506113021 63 218 4.3 0.0 0.00 0.00 0.00 76 1008.8
20260506111519 63 239 3.5 0.0 0.00 0.00 0.00 74 1008.7